Wind_Speed
13 13 14 13 14 16 16 14 12 11 10 9 9 10 9 9 10 11 13 13 12 10 9 10 9 10 9 8 8 7 5 3 3 4 7 9 9 9 10 9 9 10 10
14 14 14 14 15 15 15 13 11 9 8 6 6 7 8 8 7 9 10 11 11 11 10 9 8 8 7 7 8 8 4 1 3 5 7 9 10 10 9 9 8 7 7
16 16 16 17 17 17 17 16 13 10 8 6 6 5 5 6 7 7 8 8 9 9 9 8 7 5 5 7 8 6 4 4 5 5 9 11 8 7 7 7 7 7 6
17 18 19 20 19 19 18 16 14 12 10 10 10 9 9 8 8 6 5 3 3 4 5 5 4 4 6 8 8 9 8 8 11 12 2 9 8 9 8 8 8 9 11
19 19 19 19 18 16 15 15 14 13 13 13 14 13 11 11 9 5 2 1 1 3 3 3 4 6 8 8 7 6 5 6 9 10 10 3 5 5 5 8 8 9 10
18 18 16 16 15 14 14 13 13 13 13 14 12 13 12 10 5 6 8 8 8 6 4 6 8 7 6 5 4 6 8 8 8 8 9 6 6 6 7 8 9 10 10
16 16 15 15 13 12 13 14 17 18 14 14 13 12 11 9 8 9 9 10 8 8 4 3 4 4 5 10 9 9 9 14 9 9 7 7 4 6 9 11 11 11 9
16 14 14 13 14 15 16 18 18 16 15 14 17 15 12 9 8 9 9 10 11 8 5 5 4 7 8 9 5 5 7 12 10 12 11 4 6 12 14 15 15 15 14
14 13 13 14 15 16 18 19 15 15 16 18 15 13 7 7 11 9 8 8 11 15 13 11 13 13 13 14 16 12 11 8 11 8 10 7 6 10 12 13 16 17 18
14 13 13 14 15 16 19 19 16 19 20 17 11 9 8 9 6 9 13 13 17 11 15 18 18 16 17 16 18 15 12 11 9 13 11 6 8 11 13 14 17 18 20
13 14 14 15 16 18 20 16 17 19 19 15 14 16 15 17 17 16 15 15 14 13 17 19 17 18 19 19 17 14 14 15 15 17 18 14 17 17 17 16 18 23 23
13 14 16 16 19 20 20 17 20 17 22 21 21 19 16 11 16 16 17 14 17 22 16 18 18 18 17 16 15 14 14 14 13 15 17 14 19 20 18 16 15 21 27
13 15 16 17 20 22 21 18 20 16 20 24 22 20 18 17 20 20 19 19 22 22 22 16 16 17 17 14 13 13 14 15 15 14 16 13 17 16 18 12 18 25 21
12 14 16 19 21 22 23 20 23 21 20 21 22 20 20 20 19 21 22 21 20 19 19 20 15 13 14 14 14 17 19 21 20 19 20 19 20 23 24 24 25 25 26
13 14 15 18 21 22 24 21 22 21 22 21 19 22 23 24 27 28 26 26 20 18 17 14 14 15 15 17 19 23 26 23 22 23 23 23 27 31 33 31 32 29 26
10 12 14 16 20 20 21 21 21 22 23 24 25 20 22 26 27 25 24 23 19 16 15 17 17 17 18 18 22 25 25 24 23 23 26 28 32 36 39 36 34 22 27
12 10 12 15 16 19 21 19 19 21 22 23 23 20 21 20 21 21 20 21 20 19 18 19 17 17 20 22 23 26 25 23 22 24 26 30 34 40 45 43 41 34 32
9 9 12 13 16 16 17 18 17 17 20 20 20 19 22 19 20 21 21 20 20 19 17 18 17 17 19 20 22 25 26 23 20 23 27 33 40 45 49 47 34 28 27
6 6 9 12 13 15 14 17 17 14 16 18 20 21 17 20 18 19 19 19 20 19 20 19 19 19 19 19 22 26 28 24 23 27 32 38 43 48 49 43 34 27 19
5 6 7 9 11 12 13 12 13 14 14 16 16 16 14 14 15 16 17 18 19 19 19 18 18 21 22 26 27 29 28 26 26 28 33 38 43 49 46 37 30 29 25
7 7 7 8 8 10 11 11 9 9 9 12 13 13 11 13 15 14 15 17 18 19 19 19 21 23 25 26 27 27 27 25 25 27 31 38 43 48 42 38 28 30 27
8 7 8 7 7 8 10 11 10 7 5 6 10 10 10 13 12 11 12 13 16 19 20 20 20 20 22 24 26 27 26 24 23 25 31 37 42 46 42 37 28 27 26
12 9 8 7 6 6 7 8 9 9 9 6 7 7 7 9 8 7 9 13 16 17 18 19 20 21 22 23 24 25 23 23 21 24 31 37 42 45 40 33 32 30 27
12 9 8 8 5 5 4 5 6 7 8 9 9 7 6 7 5 6 10 14 15 15 15 17 20 21 21 23 24 25 24 23 22 25 31 35 40 45 44 35 31 29 26
12 10 10 8 7 5 4 2 3 4 5 7 9 9 5 4 4 7 10 12 12 13 14 17 19 21 21 22 24 26 24 23 22 24 30 35 40 45 45 39 31 27 24
13 12 10 10 9 7 6 5 2 0 2 4 7 8 6 2 3 5 7 10 11 12 14 18 20 20 21 23 26 27 25 22 22 24 29 35 40 45 47 41 31 25 21
Wind_Direction
89 89 92 96 96 96 94 91 95 94 95 93 94 94 93 85 80 79 90 100 106 109 108 101 88 78 77 70 74 94 112 150 186 193 181 182 179 177 180 193 199 197 201
94 91 92 91 88 86 93 96 89 83 83 96 102 99 93 92 94 93 85 85 88 84 79 77 77 67 65 60 44 31 41 94 304 256 214 202 193 189 195 205 215 221 229
95 94 92 88 88 88 83 81 80 84 90 91 91 91 86 79 61 54 62 69 73 81 90 96 92 82 54 28 14 1 356 353 349 324 229 208 201 205 208 213 222 238 245
97 94 91 88 83 76 73 75 78 79 75 71 65 60 51 50 50 49 40 45 87 110 103 96 79 47 30 13 9 5 5 1 358 5 28 208 197 201 207 212 214 225 234
98 93 90 92 90 82 72 66 67 65 63 58 58 63 64 64 66 77 107 81 13 29 36 45 54 48 49 43 35 23 19 354 349 2 354 306 234 228 222 230 230 232 238
95 91 85 84 85 80 72 66 63 62 60 58 59 68 77 82 93 61 41 35 28 35 56 78 74 62 46 40 35 24 19 26 348 325 337 297 259 264 259 249 243 237 242
85 87 82 78 80 76 69 65 64 65 77 80 77 70 72 69 56 53 44 40 21 8 359 60 93 93 66 35 11 28 27 359 6 3 335 229 243 273 275 273 266 264 257
80 78 78 73 68 64 64 65 69 87 89 81 73 66 68 69 66 60 42 31 5 347 262 124 110 86 80 64 45 100 52 20 15 22 29 14 308 294 298 298 292 282 269
72 69 68 67 67 69 70 71 71 77 80 69 76 73 94 86 72 72 69 55 25 62 96 85 94 88 88 73 58 52 20 29 28 21 18 12 333 312 308 301 294 289 281
69 68 68 67 72 71 74 77 72 75 76 69 62 93 82 12 76 79 81 75 75 79 97 95 90 85 73 68 61 57 51 37 29 13 358 356 327 311 308 309 299 287 278
73 72 75 73 72 72 77 82 72 81 70 64 60 97 70 80 78 82 76 69 76 81 103 99 75 70 63 62 57 48 40 25 15 10 10 354 353 341 326 311 301 298 277
78 77 79 72 73 76 81 78 75 76 69 78 86 80 69 68 64 73 74 72 88 97 96 114 59 69 69 58 50 43 43 29 19 16 4 0 353 341 329 290 293 305 292
90 91 87 80 78 82 84 78 85 87 68 76 77 81 67 66 68 74 80 102 106 98 78 77 70 73 60 54 46 38 34 23 13 19 19 4 343 333 338 277 294 312 297
88 89 86 81 84 90 95 90 83 84 79 79 80 83 81 77 75 76 86 113 100 92 79 78 79 60 47 44 43 37 25 19 14 13 12 4 348 339 336 320 293 290 288
91 89 85 85 83 94 100 93 83 80 74 69 83 87 78 78 77 81 82 88 94 81 85 77 73 62 54 43 33 28 25 16 13 10 6 356 344 338 329 316 307 302 288
94 93 92 84 88 95 100 97 91 88 81 83 89 83 81 80 81 83 88 91 99 95 80 68 58 48 47 40 31 23 20 14 12 6 359 350 342 333 323 317 310 303 300
115 107 97 86 83 92 102 101 94 95 92 94 84 80 83 83 84 81 83 80 76 74 67 67 59 46 38 32 23 18 16 13 10 3 352 345 339 331 320 317 313 307 285
107 120 114 98 86 83 104 108 103 92 89 91 82 81 91 78 80 78 74 73 69 71 67 59 52 47 36 28 17 13 14 15 7 353 351 342 338 329 322 327 322 302 288
107 118 113 105 92 86 96 113 120 116 99 94 86 93 85 81 78 78 71 66 60 58 56 47 40 33 26 25 15 12 13 14 357 354 350 343 337 327 329 337 341 336 317
149 140 114 108 94 85 82 105 110 122 118 111 104 99 91 87 80 72 68 63 60 57 51 42 33 24 20 17 12 10 8 8 357 355 347 339 336 332 341 349 353 350 342
192 158 132 130 117 105 87 83 101 100 120 118 113 102 99 84 70 63 60 58 53 50 42 34 28 23 16 12 8 7 5 5 357 350 346 343 339 338 347 350 343 349 346
212 176 150 140 138 121 103 90 82 77 79 87 89 83 65 61 53 48 51 49 49 44 34 25 21 19 15 8 6 5 3 357 346 349 350 347 345 342 349 357 349 350 348
212 187 162 149 153 138 106 95 85 77 61 46 68 67 64 60 53 44 50 47 42 37 26 16 13 13 9 4 2 4 359 356 350 351 352 349 348 347 354 351 354 351 356
213 198 168 170 150 151 140 109 85 71 56 46 49 55 50 53 45 38 37 40 35 29 18 8 5 6 2 359 1 4 359 355 354 351 353 352 351 351 357 355 354 352 351
201 203 188 175 181 157 165 141 91 69 51 27 32 47 45 38 43 45 36 37 30 25 9 2 2 1 357 358 2 2 359 356 352 352 354 356 354 354 359 360 358 2 352
208 203 194 190 186 185 183 181 189 320 58 27 6 40 36 30 74 60 54 35 27 20 5 360 357 355 358 1 3 359 358 357 352 353 355 359 357 356 359 2 356 358 351
Height
5877 5877 5877 5877 5877 5879 5880 5881 5880 5880 5879 5879 5879 5879 5878 5878 5878 5879 5879 5880 5881 5882 5883 5884 5885 5886 5886 5887 5887 5887 5887 5887 5888 5887 5887 5887 5887 5888 5889 5891 5891 5891 5891
5879 5880 5879 5879 5880 5881 5883 5882 5882 5880 5880 5880 5881 5881 5880 5880 5880 5882 5883 5883 5884 5885 5885 5886 5887 5886 5887 5889 5889 5889 5889 5889 5888 5888 5887 5888 5887 5888 5889 5890 5891 5891 5891
5882 5882 5882 5882 5882 5882 5882 5882 5882 5883 5883 5882 5882 5882 5882 5884 5885 5887 5888 5888 5888 5887 5888 5888 5887 5887 5888 5888 5889 5890 5890 5889 5889 5888 5887 5887 5887 5887 5889 5889 5891 5891 5890
5885 5885 5885 5885 5884 5884 5884 5884 5884 5883 5884 5884 5885 5885 5886 5886 5888 5888 5888 5887 5887 5887 5887 5887 5887 5888 5890 5892 5892 5891 5890 5889 5888 5887 5886 5886 5886 5887 5887 5887 5887 5888 5889
5887 5889 5889 5888 5887 5886 5886 5885 5885 5885 5885 5886 5887 5887 5887 5887 5887 5886 5885 5885 5886 5888 5888 5887 5888 5889 5890 5890 5891 5891 5890 5890 5888 5886 5886 5886 5887 5887 5888 5888 5888 5888 5889
5891 5891 5891 5891 5889 5888 5888 5888 5888 5888 5889 5888 5887 5887 5887 5886 5886 5886 5887 5888 5888 5888 5888 5890 5890 5890 5888 5887 5888 5889 5890 5890 5888 5887 5886 5885 5886 5886 5886 5886 5885 5884 5884
5895 5894 5894 5893 5892 5891 5891 5891 5891 5891 5890 5889 5889 5889 5889 5888 5887 5888 5889 5890 5889 5889 5890 5891 5890 5888 5888 5889 5887 5888 5888 5887 5886 5885 5884 5883 5885 5885 5884 5883 5882 5881 5880
5898 5897 5896 5896 5895 5894 5893 5893 5893 5892 5891 5890 5891 5891 5890 5889 5888 5889 5891 5890 5889 5889 5889 5892 5890 5889 5890 5888 5886 5887 5888 5888 5886 5884 5883 5884 5884 5885 5885 5884 5882 5880 5878
5900 5900 5899 5898 5897 5896 5896 5895 5894 5893 5894 5894 5893 5891 5889 5889 5891 5891 5892 5892 5891 5888 5890 5891 5891 5890 5891 5890 5890 5891 5890 5889 5887 5886 5884 5884 5884 5884 5884 5882 5880 5878 5877
5902 5901 5901 5900 5900 5898 5898 5897 5896 5897 5897 5895 5893 5892 5893 5892 5892 5893 5893 5894 5894 5893 5894 5895 5894 5893 5892 5892 5891 5892 5891 5890 5889 5887 5884 5884 5883 5882 5881 5879 5876 5874 5872
5904 5904 5903 5902 5902 5901 5900 5899 5899 5899 5898 5897 5894 5894 5895 5895 5896 5895 5896 5897 5896 5898 5899 5899 5897 5895 5895 5892 5891 5891 5891 5890 5888 5886 5884 5882 5882 5880 5878 5877 5874 5869 5866
5906 5906 5905 5904 5904 5903 5902 5901 5901 5901 5900 5899 5899 5898 5898 5899 5898 5897 5898 5898 5900 5901 5902 5901 5901 5898 5896 5894 5894 5893 5892 5889 5887 5885 5882 5881 5879 5876 5874 5869 5867 5863 5860
5909 5908 5908 5907 5906 5905 5904 5903 5904 5903 5903 5904 5903 5902 5901 5901 5899 5899 5900 5902 5904 5905 5905 5904 5902 5901 5898 5898 5897 5895 5892 5889 5886 5883 5880 5879 5877 5873 5870 5866 5863 5859 5854
5911 5910 5909 5908 5909 5908 5907 5906 5907 5907 5907 5907 5908 5907 5905 5903 5903 5902 5903 5904 5905 5907 5906 5907 5907 5904 5902 5900 5899 5895 5890 5887 5884 5881 5878 5876 5874 5870 5866 5861 5857 5853 5850
5914 5913 5911 5910 5910 5911 5909 5909 5909 5910 5909 5909 5909 5910 5908 5906 5906 5904 5906 5907 5908 5907 5908 5908 5905 5904 5903 5902 5899 5894 5889 5885 5882 5880 5877 5876 5871 5866 5860 5854 5849 5846 5844
5916 5916 5915 5913 5913 5913 5912 5912 5912 5912 5912 5912 5911 5912 5913 5912 5911 5912 5912 5911 5911 5910 5909 5907 5904 5903 5903 5901 5898 5894 5890 5886 5881 5878 5876 5874 5868 5861 5854 5848 5841 5838 5833
5917 5918 5918 5917 5916 5915 5915 5915 5916 5915 5916 5916 5915 5915 5916 5918 5916 5916 5915 5914 5911 5910 5910 5907 5907 5905 5902 5899 5897 5894 5889 5884 5881 5878 5874 5869 5865 5857 5848 5839 5833 5829 5823
5920 5921 5919 5919 5918 5918 5917 5918 5919 5919 5918 5917 5917 5917 5918 5919 5919 5917 5916 5916 5914 5912 5911 5909 5908 5907 5903 5900 5897 5893 5887 5884 5880 5876 5871 5866 5858 5850 5838 5830 5821 5815 5811
5920 5921 5921 5920 5921 5920 5920 5921 5922 5922 5922 5920 5920 5921 5921 5921 5921 5920 5918 5917 5915 5914 5912 5910 5908 5905 5902 5899 5895 5889 5884 5881 5876 5872 5866 5860 5854 5845 5833 5822 5814 5808 5804
5920 5921 5921 5921 5922 5924 5923 5923 5924 5925 5926 5925 5925 5924 5925 5924 5923 5921 5920 5918 5917 5915 5913 5910 5907 5904 5899 5894 5889 5885 5882 5878 5874 5871 5866 5860 5851 5838 5826 5817 5810 5803 5798
5923 5922 5923 5923 5923 5924 5925 5926 5926 5926 5926 5926 5927 5926 5927 5926 5924 5923 5921 5919 5918 5916 5914 5911 5906 5902 5898 5893 5889 5886 5882 5878 5875 5872 5867 5859 5848 5834 5823 5814 5807 5801 5796
5926 5924 5923 5924 5925 5926 5926 5927 5927 5927 5927 5926 5925 5925 5926 5924 5924 5924 5923 5921 5918 5916 5913 5910 5907 5904 5900 5896 5892 5887 5882 5879 5875 5871 5866 5857 5846 5833 5821 5812 5804 5798 5792
5925 5924 5924 5925 5926 5927 5927 5928 5928 5928 5928 5928 5927 5927 5927 5926 5927 5927 5925 5921 5918 5916 5914 5910 5908 5904 5901 5898 5894 5890 5885 5882 5877 5871 5865 5856 5845 5832 5821 5810 5803 5796 5791
5926 5926 5925 5926 5927 5928 5929 5929 5929 5929 5930 5930 5929 5928 5929 5928 5928 5927 5924 5921 5919 5917 5914 5911 5908 5905 5902 5899 5894 5890 5886 5881 5876 5871 5864 5856 5845 5832 5820 5810 5802 5795 5789
5924 5926 5925 5925 5927 5928 5930 5931 5932 5932 5931 5931 5931 5929 5929 5929 5929 5927 5925 5922 5920 5918 5915 5913 5910 5906 5904 5900 5895 5891 5886 5881 5875 5870 5863 5855 5844 5831 5820 5810 5802 5794 5789
5921 5923 5924 5925 5925 5927 5929 5930 5932 5933 5932 5933 5933 5931 5931 5931 5929 5928 5926 5923 5921 5919 5917 5914 5911 5909 5905 5900 5895 5890 5886 5880 5874 5869 5861 5852 5842 5831 5820 5810 5802 5795 5790